Location: ???????
(55.4362°N, 38.1183°E)
Time: 11:11:59
(UTC+00:00)

Cosmos 372 Rocket - Pass Details

Date: 28 October 2021
Orbit: 738 x 768 km, 74.1° (Epoch: 29 November)

Event Time Altitude Azimuth Distance (km) Brightness Sun altitude
Rises 15:06:06 0° 260° (W) 3,173 9.6 -10.2°
Reaches altitude 10° 15:09:04 10° 277° (W) 2,253 7.8 -10.6°
Maximum altitude 15:12:47 20° 324° (NW) 1,676 6.1 -11.2°
Drops below altitude 10° 15:16:32 10° 11° (NNE) 2,263 6.3 -11.7°
Sets 15:19:31 0° 29° (NNE) 3,192 6.9 -12.1°
Enters shadow 15:19:38 - 29° (NNE) 3,228 6.9 -12.1°
